Regional Weather Roundup
Issued by NWS Newport/Morehead, NC

Current Version | Previous Version | Text Only | Print | Product List | Glossary On
Versions: 1 2 3 4 5 6 7 8 9 10 11 12 13 14 15 16 17 18 19 20 21 22 23 24 25 26 27 28 29 30 31 32 33 34 35 36 37 38 39 40 41 42 43 44 45 46 47 48 49 50
000 ASUS42 KMHX 041625 RWRMHX WEATHER ROUNDUP FOR EASTERN NORTH CAROLINA NATIONAL WEATHER SERVICE NEWPORT/MOREHEAD CITY NC 1200 PM EDT FRI SEP 04 2015 NOTE: "FAIR" INDICATES FEW OR NO CLOUDS BELOW 12,000 FEET WITH NO SIGNIFICANT WEATHER AND/OR OBSTRUCTIONS TO VISIBILITY NCZ015>017-031-032-045>047-102-103-041700- NORTH COAST CITY SKY/WX TMP DP RH WIND PRES REMARKS EDENTON MOSUNNY 88 73 61 NE7 29.99S ELIZABETH CITY SUNNY 88 73 61 NE7 29.98S KITTY HAWK SUNNY 87 75 66 N3 29.97S MANTEO SUNNY 85 74 70 N8 29.98S $$ NCZ045>047-081-094-103-104-041700- CENTRAL COAST CITY SKY/WX TMP DP RH WIND PRES REMARKS FRISCO SUNNY 85 75 72 VRB6 29.98R SWANQUARTER N/A 90 N/A N/A CALM 29.94S $$ NCZ095-097-098-100-101-041700- SOUTHERN COAST CITY SKY/WX TMP DP RH WIND PRES REMARKS BEAUFORT MOSUNNY 86 73 65 NW8 29.98S CEDAR ISLAND N/A 84 N/A N/A NW6 30.03S JACKSONVILLE SUNNY 87 70 56 VRB3 29.98S PINEY ISLAND NOT AVBL WILMINGTON SUNNY 89 70 53 N3 29.99R $$ NCZ011>013-027>030-043-044-078>080-089-090>093-098-041700- COASTAL PLAIN CITY SKY/WX TMP DP RH WIND PRES REMARKS AHOSKIE MOSUNNY 86 72 63 N5 30.00S CLINTON SUNNY 90 71 53 E6 30.00S ELIZABETHTOWN SUNNY 89 69 52 CALM 29.99F GOLDSBORO MOSUNNY 89 71 54 N5 29.99R GREENVILLE SUNNY 88 72 58 W3 30.01S HAVELOCK SUNNY 89 72 56 N6 30.00R KENANSVILLE N/A 88 67 49 SE3 30.00F KINSTON SUNNY 88 70 55 N3 30.00S NEW BERN MOSUNNY 87 70 56 NE6 30.00S RICHLANDS SUNNY 88 68 51 CALM 29.99S ROCKY MOUNT SUNNY 90 69 50 N5 30.01R WASHINGTON SUNNY 87 71 58 CALM 29.99S WHITEVILLE SUNNY 88 70 55 CALM 29.99S $$ AMZ130-135-150-152-154-156-158-170-250-252-270-ANZ085-086-088-633-658-670-041700- MARINE OBSERVATIONS STATION/POSITION TIME TEMP WIND PRES WAVE SWELL AIR SEA DIR/SP/G HT/PER HT/PER (UTC) (F) (DEG/KT/KT) (MB) (FT/S) (FT/S) CHESAPEAKE LIGHT 1600 79 60/ 15/ 16 1016.2 64 E VA BEACH 1550 80 80 60/ 10/ 12 1014.7 1/12 2/12 DUCK 1600 80 80 30/ 11/ 11 1014.4 2 E DUCK 1511 81 N/A 1/12 OREGON INLET 1600 84 82 10/ 6/ 11 1015.0 13E OREGON INLT 1600 81 N/A 1/11 HATTERAS CG 1600 82 82 340/ 5/ 6 1014.9 DIAMOND BUOY 1550 83 84 360/ 6/ 8 1015.1 1/12 2/12 CAPE LOOKOUT 1600 83 70/ 5/ 6 1014.9 BEAUFORT LAB 1600 85 81 340/ 4/ 7 1014.6 30 SE NEW RVR IN 1508 82 82 40/ 6/ 6 1015.5 30 SE NEW RVR IN 1525 82 N/A 1/12 27 SE WRIGHTSVLE 1600 78 82 60/ 4/ 6 N/A 5 SE WRIGHTSVLE 1508 81 82 50/ 6/ 6 1015.4 225 S CAPE HAT 1550 82 85 360/ 4/ 8 1014.3 2/11 2/11 41 SE CHARLESTON 1550 82 85 30/ 2/ 4 1015.1 1/ 7 2/ 7 $$

USA.gov is the U.S. government's official web portal to all federal, state and local government web resources and services.